Terminal Aerodrome Forecast
Issued by NWS Dodge City, KS

Home | Current Version | Previous Version | Text Only | Print | Product List | Glossary On
Versions: 1 2 3 4 5 6 7 8 9 10 11 12 13 14 15 16 17 18 19 20 21 22 23 24 25 26 27 28 29 30 31 32 33 34 35 36 37 38 39 40 41 42 43 44 45 46 47
000
FTUS43 KDDC 260936 AAC
TAFDDC
TAF AMD
KDDC 260936Z 2610/2706 07014KT 1SM BR OVC002
      TEMPO 2610/2614 1/2SM FG VV001
     FM261500 07014KT 3SM BR OVC004
     FM261900 06014KT P6SM OVC015
     FM270000 06020KT 4SM -SHRA BR OVC007=

USA.gov is the U.S. government's official web portal to all federal, state and local government web resources and services.